TITAN 3C TRANSTAGE DEB, 5992

Orbit data source: Space-Track

TITAN 3C TRANSTAGE DEB, 5992 is space debris in HEO originally from a launch on Tue, 21 Dec 1965 UTC launched from the Air Force Eastern Test Range (AFETR). Debris objects in space refer to the collection of defunct objects orbiting the Earth. Examples of debris include non-operational satellites, rocket bodies, and fragments generated from explosions, collisions, or faulty payload assembly.

Loading next visibility...
Identifier
5992, 1965-108S
Orbit
HEO
Country
Flag of USUS
Related business
Manufacturer
Unknown
Mission
Spacecraft
Bus & Motor
Unknown
Mass
Unknown
Launch date (UTC)
1965-12-21 (60 years ago)
Launch vehicle
Unknown
Launch site
Air Force Eastern Test Range (AFETR)
Object type
Payload
Rocket body
Debris
Shape & HBR
Unknown shape, 1.1 m
Radar Cross Section
Small (<0.1 m²)

Expand to show TLE details & history
Last TLE update: 6 days ago

TLE from 6 days ago
0 TITAN 3C TRANSTAGE DEB
1 05992U 65108S   26028.62262218 -.00000185  00000-0 -15086-1 0  9999
2 05992  26.7836 132.4425 6620848  64.8139 348.0044  2.66156204 13194
Epoch: 2026-01-28T14:56Z
TLE epoch observation values (Epoch: 2026-01-28T14:56:34.556Z)
Latitude
0.00001°
Longitude
140.39924°
Altitude
3,264.337 km
Speed
8.034 km/s
True Right ascension
08h 49m 43s
True Declination
0° 00' 00"
Sunlit
Object was in full shadow at epoch
Visualization orbit readout
Latitude
Unknown
Longitude
Unknown
Altitude
Unknown
Speed
Unknown
Apparent Right ascension
Unknown
Apparent Declination
Unknown
Sunlit
N/A
Visualization observer readout
Local Sidereal Time
03:54:32
Azimuth
Unknown
Elevation
Unknown
Doppler factor
Unknown
Orbital elements
Apogee altitude
30,183.83 km
Perigee altitude
1,055.205 km
Semi-major axis
21,997.654 km
Eccentricity
0.66208
Inclination
26.7836°
RAAN
132.4425°
Arg. of periapsis
64.8139°
True anomaly
294.71143°
Mean anomaly
348.0044°
Eccentric anomaly
327.77707°
Mean motion
0.66524 °/min
Orbital period
541.16 mins
BSTAR
-0.015086
Loading maneuver chart data...
Computing Atmospheric mass density...

Documentation

Showing up to 5 results
|